UTMN 2 (RS27S)

Last updated on Mon Sep 21 2026 00:03:14 GMT+0000 (Coordinated Universal Time)

1 57203U 23091AP 26263.61485241 .00009364 00000+0 28577-3 0 9995 2 57203 97.4996 332.2530 0008861 100.3708 259.8534 15.34109406179166
UTC large
Height (km)
Speed (km/s)
/
Latitude / Longitude
Inclination (degrees)
Orbital Period (minutes)
Azimuth
Elevation
Range (km)
Doppler Factor

Next 0 passes for location: London (51.5072 / 0.1276)

No passes found over London.
UTMN 2 (RS27S)